[[{"header":{"parameterUnit":"m.s-1","parameterCategory":1,"la1":30.2991,"la2":30.254,"lo1":-89.0895,"lo2":-89.0444,"dy":0.0017,"dx":0.0017,"nx":28,"ny":28,"refTime":"2023-09-02T21:00:00:Z","depth":0,"parameterNumber":2,"parameterNumberName":"U-component_of_WINDS"},"data":[0,0,0,0,0,0,0,0,0,0,0,0,0,0,0,0,0,0,0,0,0,0,0,0,0,0,0,0,0,0,0,0,0,0,0,0,0,0,0,0,0,0,0,0,0,0,0,0,0,0,0,0,0,0,0,0,0,0,-2.5259,-2.526,0,-2.5315,-2.5315,-2.5316,-2.5294,-2.5293,-2.5291,-2.529,-2.5343,-2.5345,-2.5348,0,0,0,0,0,0,0,0,0,0,0,0,0,-2.5131,-2.5133,-2.5259,-2.526,-2.5261,-2.5315,-2.5315,-2.5316,-2.5294,-2.5293,-2.5291,-2.529,-2.5342,-2.5345,-2.5348,0,0,0,0,0,0,0,0,0,0,0,0,0,-2.5186,-2.5134,-2.5259,-2.5256,-2.5257,-2.5314,-2.5315,-2.5316,-2.5295,-2.5293,-2.5291,-2.5289,-2.5341,-2.5345,-2.5349,-2.5411,0,0,-2.5361,-2.5362,0,0,0,0,0,0,0,0,-2.5183,-2.5191,-2.5256,-2.5257,-2.5257,-2.5296,-2.5289,-2.5348,-2.5295,-2.528,-2.529,-2.5288,-2.5328,-2.5333,-2.5348,-2.5414,-2.5416,-2.5361,-2.5363,-2.5365,-2.5366,0,0,0,0,0,0,0,-2.5179,-2.5189,-2.5281,-2.5257,-2.5258,-2.5251,-2.5257,-2.53,-2.5314,-2.5281,-2.528,-2.5287,-2.5328,-2.5344,-2.5349,-2.5417,-2.5361,-2.5364,-2.5367,-2.5368,-2.5536,-2.5538,0,0,0,0,0,0,-2.5176,-2.5185,-2.5279,-2.5283,-2.5215,-2.5255,-2.5261,-2.5285,-2.5314,-2.5316,-2.5288,-2.5286,-2.5338,-2.5344,-2.5351,-2.5425,-2.5365,-2.5369,-2.5371,-2.5533,-2.5536,-2.5538,0,0,0,0,0,0,-2.5173,-2.5185,-2.5277,-2.5234,-2.5245,-2.5259,-2.5286,-2.5287,-2.5303,-2.5319,-2.5321,-2.5302,-2.5337,-2.5345,-2.5396,-2.5426,-2.537,-2.5374,-2.5531,-2.5534,-2.5537,-2.5574,0,0,0,0,0,0,-2.517,-2.5184,-2.5209,-2.5235,-2.5248,-2.5323,-2.5288,-2.529,-2.531,-2.5307,-2.5333,-2.5335,-2.5336,-2.5391,-2.54,-2.5431,-2.5377,-2.5528,-2.5532,-2.5536,-2.557,-2.5578,-2.5585,0,0,0,0,0,-2.5165,-2.5216,-2.521,-2.5221,-2.5279,-2.5325,-2.5332,-2.5334,-2.5313,-2.5337,-2.5347,-2.5334,-2.5422,-2.5396,-2.5407,-2.5439,-2.5526,-2.5531,-2.5536,-2.5567,-2.5577,-2.5585,0,0,0,0,0,0,-2.5191,-2.5219,-2.5213,-2.5274,-2.5298,-2.5321,-2.5352,-2.5344,-2.5373,-2.5368,-2.5368,-2.5374,-2.5427,-2.5438,-2.5409,-2.55,-2.5471,-2.5478,-2.5491,-2.55,-2.5507,-2.5503,-2.538,0,0,0,0,0,-2.5205,-2.5241,-2.5263,-2.5315,-2.5327,-2.5338,-2.5358,-2.5357,-2.5381,-2.539,-2.5404,-2.5427,-2.5459,-2.548,-2.5511,-2.5572,-2.5577,-2.56,-2.5607,-2.5613,-2.5618,-2.5651,-2.5661,-2.5554,-2.5554,-2.5554,0,0,-2.5232,-2.5251,-2.5274,-2.532,-2.5339,-2.5375,-2.5346,-2.5386,-2.5412,-2.5396,-2.5445,-2.5456,-2.5481,-2.5537,-2.5563,-2.5548,-2.5649,-2.5619,-2.5624,-2.5626,-2.5656,-2.5667,-2.5676,-2.5557,-2.5557,-2.5556,0,0,-2.5299,-2.5319,-2.5363,-2.5383,-2.5411,-2.5418,-2.5429,-2.5454,-2.5461,-2.5511,-2.5499,-2.553,-2.5587,-2.5605,-2.5621,-2.5696,-2.5685,-2.5706,-2.5744,-2.5775,-2.5784,-2.5791,-2.5817,-2.5826,-2.5712,-2.5712,-2.5712,0,-2.5329,-2.5384,-2.5387,-2.5428,-2.5448,-2.5437,-2.5481,-2.5499,-2.5536,-2.5549,-2.5533,-2.5603,-2.5619,-2.5679,-2.5698,-2.5712,-2.5723,-2.5703,-2.5783,-2.579,-2.5797,-2.5821,-2.5831,-2.5715,-2.5714,-2.5714,-2.5714,0,-2.5419,-2.5457,-2.549,-2.5527,-2.5551,-2.5593,-2.5601,-2.5625,-2.5622,-2.5631,-2.5681,-2.57,-2.5734,-2.5749,-2.5746,-2.5808,-2.5798,-2.5783,-2.5752,-2.5809,-2.5832,-2.5842,-2.5718,-2.5717,-2.5717,-2.5716,0,0,-2.5503,-2.5542,-2.5554,-2.557,-2.5601,-2.563,-2.5672,-2.5706,-2.5726,-2.5752,-2.5786,-2.5834,-2.582,-2.5839,-2.5838,-2.5866,-2.5922,-2.5846,-2.5847,-2.5859,-2.5991,-2.6001,-2.6012,-2.5916,-2.5917,-2.5919,-2.5988,0,-2.5572,-2.5647,-2.565,-2.5717,-2.5752,-2.5742,-2.5778,-2.58,-2.5809,-2.5839,-2.5848,-2.5882,-2.5861,-2.5873,-2.59,-2.591,-2.5949,-2.5905,-2.5945,-2.5947,-2.5938,-2.6024,-2.6036,-2.61,-2.5997,-2.5999,-2.6,0,-2.5662,-2.5692,-2.5763,-2.5789,-2.5803,-2.5836,-2.5868,-2.5897,-2.5922,-2.5926,-2.5948,-2.5943,-2.5984,-2.5954,-2.601,-2.598,-2.5997,-2.6005,-2.6007,-2.601,-2.5976,-2.6027,-2.612,-2.613,-2.6014,-2.6013,-2.6012,0,-2.5715,-2.5773,-2.5823,-2.5837,-2.5869,-2.5892,-2.5906,-2.5928,-2.5949,-2.5977,-2.599,-2.6021,-2.6038,-2.6063,-2.6066,-2.6044,-2.6122,-2.6092,-2.6125,-2.6125,-2.6141,-2.6139,-2.6236,-2.6154,-2.6154,-2.6154,-2.6154,0,-2.5791,-2.5835,-2.5847,-2.5878,-2.5926,-2.5929,-2.5976,-2.5988,-2.6008,-2.604,-2.6033,-2.6062,-2.6066,-2.6096,-2.6099,-2.6144,-2.6152,-2.6156,-2.6156,-2.6156,-2.6155,-2.6166,-2.6161,-2.6156,-2.6156,-2.6155,-2.6155,0,-2.5858,-2.5868,-2.5922,-2.5948,-2.5955,-2.5989,-2.601,-2.6039,-2.6047,-2.6087,-2.6097,-2.611,-2.6145,-2.6151,-2.6192,-2.6194,-2.6248,-2.6244,-2.624,-2.6239,-2.6271,-2.6267,-2.6377,-2.639,-2.6301,-2.6301,-2.6302,0,-2.5905,-2.5938,-2.5968,-2.599,-2.6005,-2.6039,-2.6061,-2.6065,-2.6087,-2.6118,-2.6142,-2.6177,-2.6205,-2.6261,-2.6273,-2.6304,-2.63,-2.6336,-2.6305,-2.6303,-2.6299,-2.6297,-2.6299,-2.6342,-2.6343,-2.6344,-2.6344,0,-2.5987,-2.5991,-2.6023,-2.6056,-2.6082,-2.6109,-2.6134,-2.6151,-2.6159,-2.6184,-2.6221,-2.6242,-2.6285,-2.6319,-2.635,-2.6362,-2.6354,-2.6355,-2.6364,-2.6363,-2.6359,-2.636,-2.6255,-2.6352,-2.6351,-2.635,-2.635,-2.635,-2.6045,-2.6074,-2.6099,-2.6135,-2.6154,-2.6178,-2.6206,-2.6218,-2.6249,-2.6285,-2.6286,-2.6325,-2.6348,-2.6389,-2.6404,-2.6434,-2.6422,-2.6436,-2.6439,-2.6442,-2.6444,-2.6355,-2.644,-2.644,-2.6439,-2.6439,-2.6439,0,-2.6125,-2.6142,-2.6174,-2.621,-2.6238,-2.623,-2.6257,-2.628,-2.6315,-2.6338,-2.6366,-2.6407,-2.644,-2.6455,-2.6487,-2.6508,-2.6505,-2.6517,-2.6514,-2.6517,-2.6453,-2.6442,-2.6518,-2.6518,-2.6518,-2.6518,-2.6518,-2.6518,-2.6171,-2.6219,-2.6225,-2.6283,-2.6298,-2.6338,-2.6354,-2.6375,-2.6393,-2.644,-2.6468,-2.6478,-2.6498,-2.6531,-2.6561,-2.6564,-2.6576,-2.6588,-2.659,-2.653,-2.6522,-2.6514,-2.6503,-2.6591,-2.6591,-2.6651,-2.6651,-2.6652]},{"header":{"parameterUnit":"m.s-1","parameterCategory":1,"la1":30.2991,"la2":30.254,"lo1":-89.0895,"lo2":-89.0444,"dy":0.0017,"dx":0.0017,"nx":28,"ny":28,"refTime":"2023-09-02T21:00:00:Z","depth":0,"parameterNumber":3,"parameterNumberName":"V-component_of_WINDS"},"data":[0,0,0,0,0,0,0,0,0,0,0,0,0,0,0,0,0,0,0,0,0,0,0,0,0,0,0,0,0,0,0,0,0,0,0,0,0,0,0,0,0,0,0,0,0,0,0,0,0,0,0,0,0,0,0,0,0,0,2.3337,2.3338,0,2.3429,2.343,2.3431,2.3406,2.3404,2.3403,2.3401,2.3491,2.3495,2.3499,0,0,0,0,0,0,0,0,0,0,0,0,0,2.3137,2.3141,2.3337,2.3338,2.3339,2.3428,2.343,2.3431,2.3407,2.3404,2.3402,2.34,2.3489,2.3494,2.3499,0,0,0,0,0,0,0,0,0,0,0,0,0,2.3226,2.3142,2.3337,2.3338,2.3339,2.3428,2.343,2.3431,2.3407,2.3404,2.3402,2.3399,2.3488,2.3494,2.35,2.3592,0,0,2.3518,2.3521,0,0,0,0,0,0,0,0,2.3221,2.3233,2.3337,2.3338,2.3339,2.3403,2.3392,2.3485,2.3408,2.3381,2.3401,2.3398,2.3463,2.3471,2.3494,2.3596,2.36,2.3519,2.3523,2.3525,2.3527,0,0,0,0,0,0,0,2.3215,2.3229,2.3373,2.3338,2.334,2.3333,2.3342,2.341,2.3436,2.3383,2.3382,2.3393,2.3464,2.3489,2.3496,2.3601,2.3519,2.3524,2.3528,2.353,2.3782,2.3785,0,0,0,0,0,0,2.3208,2.3224,2.337,2.3376,2.3272,2.3338,2.3349,2.3385,2.3436,2.3441,2.3395,2.3392,2.3479,2.3489,2.3499,2.361,2.3525,2.3531,2.3534,2.3779,2.3783,2.3786,0,0,0,0,0,0,2.3204,2.3221,2.3366,2.33,2.3318,2.3345,2.3386,2.3389,2.3414,2.3445,2.3449,2.3416,2.3478,2.3491,2.3569,2.3613,2.3534,2.3539,2.3776,2.378,2.3785,2.3832,0,0,0,0,0,0,2.3198,2.322,2.3256,2.3301,2.3321,2.3436,2.3388,2.3392,2.3425,2.3421,2.3465,2.347,2.3477,2.356,2.3575,2.362,2.3544,2.3772,2.3778,2.3783,2.3827,2.3838,2.3847,0,0,0,0,0,2.3191,2.3265,2.3258,2.3276,2.3367,2.3439,2.345,2.3457,2.3428,2.3464,2.3484,2.3469,2.3606,2.3568,2.3585,2.3632,2.3769,2.3776,2.3783,2.3822,2.3835,2.3847,0,0,0,0,0,0,2.3224,2.3271,2.3264,2.3355,2.3393,2.3434,2.348,2.3471,2.3518,2.3512,2.3517,2.3528,2.3608,2.3628,2.3585,2.3724,2.3683,2.3694,2.3707,2.372,2.373,2.3723,2.3549,0,0,0,0,0,2.3242,2.3297,2.3335,2.3411,2.3431,2.3453,2.3484,2.3486,2.3525,2.3541,2.3567,2.3604,2.3656,2.3689,2.3738,2.383,2.3838,2.387,2.3881,2.3889,2.3897,2.3946,2.396,2.3809,2.3808,2.3808,0,0,2.3279,2.3312,2.3346,2.3419,2.3449,2.3504,2.3466,2.3527,2.3567,2.355,2.3625,2.3646,2.3688,2.3773,2.3812,2.3792,2.3941,2.3898,2.3904,2.3908,2.3954,2.3969,2.3982,2.3813,2.3812,2.3812,0,0,2.3375,2.3406,2.3473,2.3504,2.355,2.3564,2.358,2.3623,2.3636,2.3713,2.37,2.3748,2.3837,2.3868,2.3895,2.4003,2.399,2.4019,2.4071,2.4119,2.413,2.4141,2.4178,2.4192,2.4027,2.4027,2.4028,0,2.3415,2.35,2.3508,2.357,2.3601,2.359,2.3656,2.3686,2.3745,2.3767,2.3745,2.3856,2.3883,2.3975,2.4001,2.4024,2.4042,2.4013,2.4128,2.4139,2.4149,2.4184,2.4199,2.4031,2.403,2.403,2.403,0,2.3546,2.3605,2.3653,2.3712,2.3749,2.3813,2.383,2.3866,2.3866,2.3881,2.3959,2.3992,2.4047,2.4069,2.4069,2.4161,2.4147,2.4127,2.4086,2.4166,2.42,2.4214,2.4035,2.4034,2.4033,2.4032,0,0,2.3663,2.3727,2.3744,2.3771,2.3821,2.3866,2.3929,2.3984,2.4015,2.4057,2.4109,2.4184,2.4166,2.4197,2.42,2.4242,2.4324,2.4216,2.4217,2.4234,2.4425,2.4439,2.4455,2.4316,2.4319,2.4321,2.4421,0,2.3763,2.3875,2.3884,2.3985,2.4038,2.4028,2.4083,2.4119,2.4135,2.4182,2.42,2.4253,2.4226,2.4244,2.4285,2.4305,2.4362,2.4298,2.4363,2.4365,2.4351,2.4473,2.4487,2.4581,2.4435,2.4437,2.4438,0,2.3893,2.394,2.4046,2.4088,2.4111,2.416,2.4212,2.4257,2.4298,2.4307,2.4342,2.4339,2.4402,2.436,2.4447,2.4403,2.443,2.4444,2.4448,2.4453,2.4405,2.4479,2.4611,2.4624,2.4459,2.4458,2.4456,0,2.3967,2.4056,2.4131,2.4154,2.4206,2.424,2.4263,2.4301,2.4334,2.4378,2.4399,2.445,2.4478,2.4517,2.4527,2.4496,2.4613,2.4573,2.4621,2.4621,2.4645,2.4643,2.4781,2.4665,2.4665,2.4665,2.4664,0,2.4075,2.414,2.4164,2.421,2.4282,2.4292,2.4362,2.4383,2.4417,2.4466,2.446,2.4506,2.4518,2.4565,2.4574,2.4644,2.4656,2.4664,2.4665,2.4664,2.4663,2.468,2.4674,2.4668,2.4668,2.4667,2.4666,0,2.4169,2.4188,2.4268,2.4311,2.4324,2.4375,2.4411,2.4454,2.447,2.4532,2.4547,2.4572,2.4627,2.4642,2.4708,2.4714,2.4796,2.4792,2.4782,2.4782,2.4829,2.4823,2.4982,2.5002,2.4875,2.4876,2.4877,0,2.4236,2.4286,2.4335,2.4367,2.4392,2.4445,2.4479,2.449,2.4525,2.4575,2.4612,2.4667,2.4712,2.4801,2.4824,2.4874,2.487,2.4923,2.4878,2.4874,2.4869,2.4866,2.487,2.493,2.4932,2.4933,2.4934,0,2.4353,2.436,2.4409,2.4462,2.4502,2.4544,2.4584,2.4611,2.4628,2.4667,2.4725,2.4759,2.4828,2.4882,2.4933,2.4955,2.4947,2.4948,2.4961,2.4959,2.4951,2.4955,2.4804,2.4944,2.4943,2.4942,2.4941,2.4941,2.4434,2.4478,2.4519,2.4574,2.4605,2.4643,2.4686,2.4708,2.4756,2.4813,2.4817,2.4879,2.4917,2.4986,2.5011,2.5058,2.5043,2.5063,2.5067,2.5072,2.5075,2.4945,2.5068,2.5068,2.5067,2.5067,2.5067,0,2.455,2.4576,2.4626,2.4683,2.4726,2.4716,2.476,2.4796,2.4851,2.4888,2.4933,2.4998,2.5051,2.5079,2.5131,2.5163,2.5161,2.5177,2.5173,2.5178,2.5087,2.5069,2.5178,2.5178,2.5178,2.5178,2.5178,2.5178,2.4615,2.4687,2.4699,2.4787,2.4813,2.4874,2.49,2.4934,2.4964,2.5037,2.5082,2.51,2.5133,2.5188,2.5235,2.5242,2.5261,2.5278,2.5283,2.5196,2.5185,2.5174,2.5157,2.5283,2.5283,2.537,2.5371,2.5371]}]]